Location: Radomski Observatory
(40.2854°N, 79.5145°W)
Time: 00:40:19
(UTC-05:00)

Amateur Radio Satellites - All Passes

Search period start: 23 November 2014 00:10
Search period end: 24 November 2014 00:10
Location: Radomski Observatory, 40.2854°N, 79.5145°W

Satellite Date Start Highest point End Downlink Frequencies (MHz)
Time Altitude Azimuth
ESTCUBE 1 23 Nov 00:13:18 00:14:42 11° 270° (W) 00:16:06 437.505/2401.250
ISS 23 Nov 00:24:30 00:27:36 40° 137° (SE) 00:30:42 145.825
ITUPSAT 1 23 Nov 00:25:54 00:30:23 41° 70° (ENE) 00:34:54 437.325
POPSAT HIP 1 23 Nov 00:29:14 00:31:56 17° 295° (WNW) 00:34:38 437.405
BUGSAT 1 23 Nov 00:34:30 00:37:07 17° 295° (WNW) 00:39:44 437.445
SWISSCUBE 23 Nov 00:38:01 00:42:44 60° 73° (ENE) 00:47:29 437.505
CUSAT 1 23 Nov 00:53:28 00:57:44 56° 262° (W) 01:03:29 437.405
KKS-1 23 Nov 00:58:15 01:01:17 18° 65° (ENE) 01:04:19 437.445
DANDE 23 Nov 01:03:46 01:07:51 52° 262° (W) 01:13:21 436.750
BEESAT 23 Nov 01:09:51 01:14:37 71° 258° (WSW) 01:19:26 436.000
RS-15 23 Nov 01:27:42 01:38:54 68° 54° (NE) 01:50:34 29.354- 29.394
Oscar 19 23 Nov 01:33:12 01:38:13 49° 100° (E) 01:43:13 437.125/150
YUBILEINY 23 Nov 01:38:33 01:44:55 23° 80° (E) 01:51:16 435.215
AUBIESAT-1 23 Nov 01:39:21 01:41:27 14° 265° (W) 01:43:39 437.475
M-CUBED/EXP-1 PRIME 23 Nov 01:42:51 01:44:17 12° 267° (W) 01:45:45 437.505
STARS 23 Nov 01:59:56 02:04:14 55° 73° (ENE) 02:08:33 437.465
ISS 23 Nov 02:01:28 02:04:19 27° 334° (NNW) 02:07:12 145.825
ITUPSAT 1 23 Nov 02:04:50 02:08:25 21° 266° (W) 02:12:03 437.325
MaSat-1 23 Nov 02:05:57 02:07:54 23° 249° (WSW) 02:09:53 437.345
SWISSCUBE 23 Nov 02:18:28 02:20:58 14° 269° (W) 02:23:29 437.505
ITAMSAT 1 23 Nov 02:18:29 02:23:32 50° 100° (E) 02:28:32 435.822/435.867
Gurwin Techsat 1B 23 Nov 02:30:25 02:35:21 38° 98° (E) 02:40:14 435.225
KKS-1 23 Nov 02:33:23 02:37:37 42° 261° (W) 02:41:52 437.445
Oscar 19 23 Nov 03:13:27 03:17:11 21° 296° (WNW) 03:20:55 437.125/150
MOZHAYETS 4 23 Nov 03:15:20 03:17:45 14° 63° (ENE) 03:20:12
YUBILEINY 23 Nov 03:31:58 03:40:46 73° 279° (W) 03:49:35 435.215
AO-7 23 Nov 03:35:35 03:42:38 29° 96° (E) 03:49:37 29.400- 29.500
STARS 23 Nov 03:39:00 03:41:03 13° 269° (W) 03:43:06 437.465
HORYU 2 23 Nov 03:40:09 03:44:40 85° 103° (ESE) 03:49:10 437.375
ISS 23 Nov 03:40:27 03:41:50 12° 354° (N) 03:43:14 145.825
RS-15 23 Nov 03:40:52 03:50:32 35° 254° (WSW) 04:00:35 29.354- 29.394
JAS-2 23 Nov 03:57:25 03:59:42 12° 83° (E) 04:01:55 435.910
ITAMSAT 1 23 Nov 03:58:55 04:02:37 20° 297° (WNW) 04:06:20 435.822/435.867
PCSat 23 Nov 04:00:36 04:03:25 14° 41° (NE) 04:06:14 145.827
Gurwin Techsat 1B 23 Nov 04:10:43 04:15:07 27° 294° (WNW) 04:19:30 435.225
SO-50 23 Nov 04:38:13 04:42:41 76° 120° (ESE) 04:47:20 436.795
CUBESAT XI-V 23 Nov 04:49:18 04:49:41 10° 60° (ENE) 04:50:04 437.345
MOZHAYETS 4 23 Nov 04:49:57 04:54:28 59° 260° (W) 04:59:02
BEESAT 3 23 Nov 05:11:59 05:15:35 26° 49° (NE) 05:19:08 437.485
CUTE-I 23 Nov 05:16:14 05:17:53 11° 89° (E) 05:19:32 437.470
ISS 23 Nov 05:17:34 05:19:35 15° 15° (NNE) 05:21:36 145.825
BEESAT 2 23 Nov 05:24:32 05:28:20 31° 50° (NE) 05:32:05 435.950
AO-7 23 Nov 05:27:38 05:35:49 62° 293° (WNW) 05:44:00 29.400- 29.500
STRAND 1 23 Nov 05:33:11 05:37:41 32° 68° (ENE) 05:42:12 437.568
YUBILEINY 23 Nov 05:34:54 05:39:16 14° 301° (WNW) 05:43:38 435.215
PRISM 23 Nov 05:38:18 05:42:29 87° 256° (WSW) 05:46:44 437.425
JAS-2 23 Nov 05:38:47 05:46:05 79° 103° (ESE) 05:52:29 435.910
PCSat 23 Nov 05:42:18 05:47:45 78° 61° (ENE) 05:53:09 145.827
AIST 2 23 Nov 05:44:15 05:47:56 27° 49° (NE) 05:51:35 435.215
O/OREOS (USA 219) 23 Nov 06:03:39 06:07:33 29° 104° (ESE) 06:11:26 437.305
Cubesat XI-IV 23 Nov 06:11:03 06:16:05 41° 98° (E) 06:21:04 437.490
SO-50 23 Nov 06:20:58 06:23:49 16° 320° (NW) 06:26:44 436.795
CUBESAT XI-V 23 Nov 06:21:38 06:26:22 89° 256° (WSW) 06:31:07 437.345
BEESAT 3 23 Nov 06:50:07 06:53:48 30° 246° (WSW) 06:57:26 437.485
CUTE-I 23 Nov 06:53:14 06:58:34 83° 285° (WNW) 07:03:52 437.470
ISS 23 Nov 06:53:33 06:56:48 54° 34° (NNE) 07:00:03 145.825
BEESAT 2 23 Nov 07:03:03 07:06:30 25° 247° (WSW) 07:09:54 435.950
STRAND 1 23 Nov 07:12:18 07:16:48 30° 264° (W) 07:21:20 437.568
AIST 1 23 Nov 07:20:33 07:24:58 79° 82° (E) 07:29:18
AIST 2 23 Nov 07:22:45 07:26:35 32° 246° (WSW) 07:30:21 435.215
AO-7 23 Nov 07:23:08 07:26:55 14° 314° (NW) 07:30:44 29.400- 29.500
JAS-2 23 Nov 07:25:09 07:30:07 20° 303° (WNW) 07:34:46 435.910
GONETS M04 23 Nov 07:27:38 07:34:23 26° 81° (E) 07:41:08
PCSat 23 Nov 07:27:53 07:30:26 13° 257° (WSW) 07:32:58 145.827
HO-68 23 Nov 07:35:00 07:36:17 11° 87° (E) 07:37:33 435.675
O/OREOS (USA 219) 23 Nov 07:43:09 07:46:55 26° 301° (WNW) 07:50:41 437.305
Cubesat XI-IV 23 Nov 07:51:38 07:55:55 25° 295° (WNW) 08:00:12 437.490
CUTE 1.7 & AOD 2 23 Nov 08:04:55 08:05:56 11° 90° (E) 08:06:57 437.475
BRITE-PL 23 Nov 08:09:59 08:11:03 11° 90° (E) 08:12:07 437.365/2234.400
ISS 23 Nov 08:31:02 08:33:09 16° 229° (SW) 08:35:17 145.825
CUTE-I 23 Nov 08:36:20 08:37:46 11° 302° (WNW) 08:39:12 437.470
SEEDS 23 Nov 08:39:55 08:43:24 24° 95° (E) 08:46:52 437.485
UNISAT 6 23 Nov 08:57:34 08:59:37 13° 64° (ENE) 09:01:41 437.425
CANX-2 23 Nov 09:02:54 09:07:08 56° 100° (E) 09:11:21 2200.000
AAUSAT CUBESAT 2 23 Nov 09:02:58 09:06:47 32° 97° (E) 09:10:35 437.432
DOVE 4 23 Nov 09:05:58 09:09:29 26° 96° (E) 09:13:04 437.250
NANOSAT C BR1 23 Nov 09:13:16 09:15:27 14° 64° (ENE) 09:17:37 145.865
COMPASS 1 23 Nov 09:15:47 09:19:57 52° 100° (E) 09:24:05 437.405
HO-68 23 Nov 09:17:56 09:25:08 72° 104° (ESE) 09:32:16 435.675
GONETS M04 23 Nov 09:21:39 09:30:22 67° 280° (W) 09:39:13
QB50P1 23 Nov 09:22:01 09:24:49 17° 66° (ENE) 09:27:36 145.935-145.965
ANTELSAT 23 Nov 09:24:14 09:27:46 26° 69° (ENE) 09:31:18 437.575/2403.000
DELFI C3 23 Nov 09:24:26 09:27:47 23° 95° (E) 09:31:07 145.870
GOMX 1 23 Nov 09:33:04 09:37:13 75° 102° (ESE) 09:41:26 467.674
CUTE 1.7 & AOD 2 23 Nov 09:38:01 09:42:15 62° 285° (WNW) 09:46:29 437.475
POPSAT HIP 1 23 Nov 09:45:17 09:49:01 30° 70° (ENE) 09:52:45 437.405
BRITE-PL 23 Nov 09:45:55 09:49:58 54° 286° (WNW) 09:54:01 437.365/2234.400
BUGSAT 1 23 Nov 09:48:12 09:51:49 27° 69° (ENE) 09:55:25 437.445
FUNcube-1 23 Nov 09:48:57 09:52:16 22° 95° (E) 09:55:38 145.935
UKube-1 23 Nov 09:50:37 09:54:49 47° 100° (E) 09:59:00 .
CUBEBUG 2 23 Nov 09:59:48 10:03:48 41° 99° (E) 10:07:52 437.445
Oscar 11 23 Nov 10:04:12 10:08:34 82° 103° (ESE) 10:12:55 145.826/435.025
CINEMA 3 23 Nov 10:04:38 10:08:49 76° 102° (ESE) 10:13:07 145.822/145.860
UWE-3 23 Nov 10:06:36 10:10:37 42° 99° (E) 10:14:42 435.000/436.395/437.385
SEEDS 23 Nov 10:15:34 10:19:12 28° 290° (WNW) 10:22:50 437.485
POLYITAN 1 23 Nov 10:16:18 10:20:33 69° 75° (ENE) 10:24:48 437.675
QB50P2 23 Nov 10:19:35 10:23:51 76° 76° (ENE) 10:28:07 145.880/145.840
TIGRISAT 23 Nov 10:19:46 10:24:03 77° 258° (WSW) 10:28:19 435.000
DX 1 23 Nov 10:22:57 10:27:18 71° 285° (WNW) 10:31:36 434.975-435.025
DUCHIFAT 1 23 Nov 10:27:41 10:31:58 89° 257° (WSW) 10:36:14 145.980
ESTCUBE 1 23 Nov 10:27:57 10:30:31 15° 91° (E) 10:33:03 437.505/2401.250
UNISAT 6 23 Nov 10:31:46 10:35:58 54° 260° (W) 10:40:10 437.425
SHINDAISAT 23 Nov 10:34:07 10:35:22 21° 118° (ESE) 10:36:39 437.305
VELOX 1 23 Nov 10:39:04 10:43:24 51° 100° (E) 10:47:41 145.980
AAUSAT CUBESAT 2 23 Nov 10:39:06 10:42:16 21° 292° (WNW) 10:45:26 437.432
CANX-2 23 Nov 10:40:33 10:42:35 13° 296° (WNW) 10:44:38 2200.000
DOVE 4 23 Nov 10:43:52 10:47:12 24° 291° (WNW) 10:50:34 437.250
NANOSAT C BR1 23 Nov 10:46:43 10:50:53 53° 260° (W) 10:55:04 145.865
ZACube-1 23 Nov 10:48:35 10:52:47 74° 284° (WNW) 10:57:03 437.345
COMPASS 1 23 Nov 10:53:04 10:55:14 14° 296° (WNW) 10:57:25 437.405
HUMSAT D 23 Nov 10:55:01 10:59:12 79° 102° (ESE) 11:03:23 437.325/437.525
QB50P1 23 Nov 10:56:21 11:00:23 41° 261° (W) 11:04:26 145.935-145.965
DELFI C3 23 Nov 10:59:33 11:03:03 27° 290° (WNW) 11:06:32 145.870
ANTELSAT 23 Nov 11:00:55 11:04:30 26° 264° (W) 11:08:06 437.575/2403.000
AISAT 23 Nov 11:03:19 11:07:46 83° 284° (WNW) 11:12:10 437.250
50 SAT 23 Nov 11:04:28 11:08:33 85° 103° (ESE) 11:12:37 437.505
HO-68 23 Nov 11:06:49 11:12:09 23° 302° (WNW) 11:17:27 435.675
POPSAT HIP 1 23 Nov 11:21:35 11:24:56 22° 265° (W) 11:28:17 437.405
BUGSAT 1 23 Nov 11:23:45 11:27:15 25° 264° (W) 11:30:47 437.445
FUNcube-1 23 Nov 11:24:59 11:28:38 29° 290° (WNW) 11:32:19 145.935
GONETS M04 23 Nov 11:25:30 11:29:07 13° 303° (WNW) 11:32:45
CUBEBUG 1 23 Nov 11:27:47 11:32:09 64° 101° (E) 11:36:26 437.445
UKube-1 23 Nov 11:27:59 11:30:36 16° 296° (WNW) 11:33:11 .
TISAT 1 23 Nov 11:29:13 11:31:46 16° 93° (E) 11:34:18 437.305
SPROUT 23 Nov 11:29:41 11:31:57 14° 92° (E) 11:34:12 437.525
SO-50 23 Nov 11:31:58 11:33:26 11° 35° (NE) 11:34:53 436.795
CUBEBUG 2 23 Nov 11:37:31 11:40:13 17° 294° (WNW) 11:42:58 437.445
UWE-3 23 Nov 11:44:13 11:46:52 17° 294° (WNW) 11:49:32 435.000/436.395/437.385
ESTCUBE 1 23 Nov 12:03:16 12:07:41 51° 287° (WNW) 12:12:03 437.505/2401.250
VELOX 1 23 Nov 12:17:00 12:19:33 15° 296° (WNW) 12:22:06 145.980
ITUPSAT 1 23 Nov 12:30:03 12:31:03 11° 89° (E) 12:32:03 437.325
SWISSCUBE 23 Nov 12:40:29 12:43:26 16° 92° (E) 12:46:22 437.505
Oscar 19 23 Nov 12:49:34 12:54:37 68° 74° (ENE) 12:59:43 437.125/150
TISAT 1 23 Nov 13:03:50 13:07:48 41° 288° (WNW) 13:11:45 437.305
SPROUT 23 Nov 13:04:11 13:08:18 47° 287° (WNW) 13:12:24 437.525
CUBEBUG 1 23 Nov 13:06:11 13:07:58 12° 298° (WNW) 13:09:44 437.445
SO-50 23 Nov 13:10:09 13:14:59 60° 55° (NE) 13:19:49 436.795
BEESAT 23 Nov 13:11:12 13:15:27 31° 97° (E) 13:19:40 436.000
AUBIESAT-1 23 Nov 13:19:56 13:24:42 48° 104° (ESE) 13:29:21 437.475
M-CUBED/EXP-1 PRIME 23 Nov 13:22:58 13:27:50 56° 105° (ESE) 13:32:37 437.505
ITAMSAT 1 23 Nov 13:35:52 13:41:04 73° 74° (ENE) 13:46:17 435.822/435.867
YUBILEINY 23 Nov 13:42:57 13:51:30 56° 77° (ENE) 13:59:57 435.215
Gurwin Techsat 1B 23 Nov 13:50:55 13:56:05 57° 72° (ENE) 14:01:18 435.225
STARS 23 Nov 13:53:36 13:54:22 10° 90° (E) 13:55:08 437.465
ITUPSAT 1 23 Nov 14:04:40 14:09:29 77° 285° (WNW) 14:14:16 437.325
CUSAT 1 23 Nov 14:08:27 14:10:41 21° 283° (WNW) 14:12:46 437.405
SWISSCUBE 23 Nov 14:16:55 14:21:36 52° 288° (WNW) 14:26:13 437.505
DANDE 23 Nov 14:21:38 14:23:44 18° 283° (WNW) 14:25:41 436.750
KKS-1 23 Nov 14:25:12 14:29:19 37° 98° (E) 14:33:25 437.445
VERMONT LUNAR 23 Nov 14:28:42 14:29:45 11° 144° (SE) 14:30:48 437.305
Oscar 19 23 Nov 14:31:58 14:34:26 14° 270° (W) 14:36:55 437.125/150
AO-7 23 Nov 14:34:01 14:41:30 40° 61° (ENE) 14:49:00 29.400- 29.500
HORYU 2 23 Nov 14:38:13 14:42:37 74° 75° (ENE) 14:47:04 437.375
BEESAT 23 Nov 14:49:09 14:53:12 28° 293° (WNW) 14:57:13 436.000
SO-50 23 Nov 14:51:59 14:55:04 17° 251° (WSW) 14:58:10 436.795
AUBIESAT-1 23 Nov 14:55:38 14:59:19 22° 300° (WNW) 15:02:59 437.475
M-CUBED/EXP-1 PRIME 23 Nov 14:59:00 15:02:25 19° 301° (WNW) 15:05:49 437.505
ITAMSAT 1 23 Nov 15:18:45 15:21:04 13° 270° (W) 15:23:24 435.822/435.867
STARS 23 Nov 15:26:55 15:31:18 67° 285° (WNW) 15:35:38 437.465
Gurwin Techsat 1B 23 Nov 15:32:57 15:36:24 17° 268° (W) 15:39:53 435.225
MaSat-1 23 Nov 15:34:00 15:36:57 40° 113° (ESE) 15:39:39 437.345
YUBILEINY 23 Nov 15:40:31 15:47:46 31° 277° (W) 15:55:00 435.215
PHONESAT 2.4 23 Nov 15:41:56 15:45:03 25° 152° (SSE) 15:48:10 2401.200-2431.200
JAS-2 23 Nov 15:48:36 15:55:24 38° 65° (ENE) 16:02:26 435.910
RS-15 23 Nov 15:51:10 16:01:15 44° 109° (ESE) 16:11:15 29.354- 29.394
KKS-1 23 Nov 16:02:28 16:05:43 20° 294° (WNW) 16:08:57 437.445
VERMONT LUNAR 23 Nov 16:04:12 16:07:40 43° 159° (SSE) 16:11:08 437.305
O/OREOS (USA 219) 23 Nov 16:13:28 16:17:51 53° 65° (ENE) 16:22:13 437.305
AO-7 23 Nov 16:26:13 16:34:05 48° 259° (W) 16:42:04 29.400- 29.500
CUTE-I 23 Nov 16:36:35 16:40:26 21° 63° (ENE) 16:44:17 437.470
MOZHAYETS 4 23 Nov 16:45:58 16:50:13 34° 97° (E) 16:54:25
PHONESAT 2.4 23 Nov 17:19:51 17:23:34 75° 167° (SSE) 17:27:17 2401.200-2431.200
PRISM 23 Nov 17:23:45 17:26:03 14° 92° (E) 17:28:20 437.425
Cubesat XI-IV 23 Nov 17:32:30 17:37:49 65° 73° (ENE) 17:43:08 437.490
JAS-2 23 Nov 17:32:58 17:40:07 48° 263° (W) 17:47:42 435.910
GONETS M04 23 Nov 17:39:52 17:42:24 11° 56° (NE) 17:44:56
VERMONT LUNAR 23 Nov 17:42:25 17:46:04 87° 358° (N) 17:49:42 437.305
O/OREOS (USA 219) 23 Nov 17:54:30 17:56:45 14° 261° (W) 17:59:00 437.305
RS-15 23 Nov 18:02:40 18:13:19 55° 311° (NW) 18:24:03 29.354- 29.394
CUTE-I 23 Nov 18:14:51 18:20:05 53° 260° (W) 18:25:20 437.470
CUBESAT XI-V 23 Nov 18:19:52 18:23:38 24° 94° (E) 18:27:22 437.345
MOZHAYETS 4 23 Nov 18:23:32 18:27:15 24° 293° (WNW) 18:30:58
PRISM 23 Nov 18:57:46 19:01:51 46° 288° (WNW) 19:05:53 437.425
PHONESAT 2.4 23 Nov 18:58:40 19:02:24 88° 5° (N) 19:06:08 2401.200-2431.200
Cubesat XI-IV 23 Nov 19:15:14 19:18:20 15° 269° (W) 19:21:26 437.490
BRITE-PL 23 Nov 19:19:23 19:22:35 17° 66° (ENE) 19:25:39 437.365/2234.400
VERMONT LUNAR 23 Nov 19:20:57 19:24:35 75° 193° (SSW) 19:28:12 437.305
STRAND 1 23 Nov 19:22:37 19:27:45 87° 285° (WNW) 19:32:50 437.568
GONETS M04 23 Nov 19:32:35 19:41:21 62° 78° (ENE) 19:49:59
SEEDS 23 Nov 19:32:56 19:35:38 17° 66° (ENE) 19:38:20 437.485
HO-68 23 Nov 19:45:38 19:52:31 51° 67° (ENE) 19:59:25 435.675
AIST 1 23 Nov 19:49:33 19:53:46 48° 93° (E) 19:58:01
AAUSAT CUBESAT 2 23 Nov 19:54:37 19:57:48 22° 68° (ENE) 20:00:59 437.432
CANX-2 23 Nov 19:55:49 19:59:42 37° 72° (ENE) 20:03:36 2200.000
CUBESAT XI-V 23 Nov 19:56:55 20:01:07 33° 290° (WNW) 20:05:15 437.345
COMPASS 1 23 Nov 20:07:23 20:11:08 33° 71° (ENE) 20:14:54 437.405
DOVE 4 23 Nov 20:11:25 20:15:25 29° 70° (ENE) 20:19:13 437.250
DELFI C3 23 Nov 20:14:04 20:16:25 15° 65° (ENE) 20:18:47 145.870
RS-15 23 Nov 20:21:02 20:28:57 22° 342° (NNW) 20:37:00 29.354- 29.394
PCSat 23 Nov 20:23:14 20:28:38 81° 117° (ESE) 20:34:04 145.827
CUTE 1.7 & AOD 2 23 Nov 20:30:28 20:34:40 87° 77° (ENE) 20:38:55 437.475
PHONESAT 2.4 23 Nov 20:37:33 20:41:06 44° 201° (SSW) 20:44:38 2401.200-2431.200
GOMX 1 23 Nov 20:40:25 20:45:19 79° 76° (ENE) 20:49:54 467.674
BEESAT 3 23 Nov 20:44:07 20:48:07 57° 118° (ESE) 20:52:13 437.485
UKube-1 23 Nov 20:45:24 20:49:27 39° 71° (ENE) 20:53:30 .
FUNcube-1 23 Nov 20:45:32 20:48:21 18° 67° (ENE) 20:51:09 145.935
BRITE-PL 23 Nov 20:55:42 21:00:45 54° 260° (W) 21:05:27 437.365/2234.400
BEESAT 2 23 Nov 20:57:18 21:01:24 73° 120° (ESE) 21:05:34 435.950
CUBEBUG 2 23 Nov 20:58:13 21:02:04 33° 71° (ENE) 21:05:51 437.445
Oscar 11 23 Nov 20:58:30 21:02:43 58° 74° (ENE) 21:06:58 145.826/435.025
VERMONT LUNAR 23 Nov 20:59:46 21:02:47 25° 208° (SSW) 21:05:48 437.305
UWE-3 23 Nov 21:03:56 21:07:45 33° 71° (ENE) 21:11:31 435.000/436.395/437.385
STRAND 1 23 Nov 21:04:47 21:06:07 11° 302° (WNW) 21:07:27 437.568
CINEMA 3 23 Nov 21:06:06 21:10:32 66° 75° (ENE) 21:14:48 145.822/145.860
SEEDS 23 Nov 21:07:13 21:11:09 40° 262° (W) 21:15:07 437.485
DX 1 23 Nov 21:17:56 21:22:20 87° 255° (WSW) 21:26:45 434.975-435.025
AIST 2 23 Nov 21:20:10 21:24:19 62° 118° (ESE) 21:28:33 435.215
ESTCUBE 1 23 Nov 21:28:04 21:30:29 14° 63° (ENE) 21:32:53 437.505/2401.250
AIST 1 23 Nov 21:29:17 21:31:43 15° 290° (WNW) 21:34:10
AAUSAT CUBESAT 2 23 Nov 21:29:40 21:33:19 30° 264° (W) 21:37:00 437.432
GONETS M04 23 Nov 21:30:24 21:37:29 28° 278° (W) 21:44:32
CANX-2 23 Nov 21:32:59 21:35:47 17° 267° (W) 21:38:36 2200.000
HO-68 23 Nov 21:34:16 21:40:25 30° 264° (W) 21:46:37 435.675
VELOX 1 23 Nov 21:36:33 21:40:48 44° 72° (ENE) 21:45:03 145.980
COMPASS 1 23 Nov 21:43:59 21:46:57 19° 267° (W) 21:49:56 437.405
ZACube-1 23 Nov 21:44:19 21:48:34 82° 76° (ENE) 21:52:46 437.345
HUMSAT D 23 Nov 21:47:00 21:51:02 51° 74° (ENE) 21:55:02 437.325/437.525
DELFI C3 23 Nov 21:47:30 21:51:22 43° 261° (W) 21:55:17 145.870
DOVE 4 23 Nov 21:49:11 21:53:08 26° 264° (W) 21:56:56 437.250
50 SAT 23 Nov 21:53:02 21:56:57 49° 74° (ENE) 22:00:51 437.505
AISAT 23 Nov 22:00:55 22:05:25 84° 76° (ENE) 22:09:55 437.250
POLYITAN 1 23 Nov 22:05:04 22:06:37 12° 91° (E) 22:08:09 437.675
QB50P2 23 Nov 22:07:49 22:09:44 13° 91° (E) 22:11:39 145.880/145.840
PCSat 23 Nov 22:09:09 22:12:42 17° 316° (NW) 22:16:17 145.827
TIGRISAT 23 Nov 22:12:37 22:16:04 22° 95° (E) 22:19:35 435.000
DUCHIFAT 1 23 Nov 22:15:04 22:17:34 15° 92° (E) 22:20:03 145.980
PHONESAT 2.4 23 Nov 22:18:09 22:19:19 11° 216° (SW) 22:20:30 2401.200-2431.200
FUNcube-1 23 Nov 22:20:30 22:24:27 38° 262° (W) 22:28:22 145.935
TISAT 1 23 Nov 22:22:44 22:24:34 13° 63° (ENE) 22:26:25 437.305
UKube-1 23 Nov 22:22:46 22:25:45 18° 266° (W) 22:28:45 .
CUBEBUG 1 23 Nov 22:23:34 22:27:52 50° 73° (ENE) 22:32:10 437.445
BEESAT 3 23 Nov 22:24:02 22:26:43 17° 316° (NW) 22:29:25 437.485
UNISAT 6 23 Nov 22:24:28 22:28:23 30° 97° (E) 22:32:22 437.425
SPROUT 23 Nov 22:25:02 22:26:28 12° 63° (ENE) 22:27:54 437.525
NANOSAT C BR1 23 Nov 22:33:13 22:36:43 25° 95° (E) 22:40:11 145.865
CUBEBUG 2 23 Nov 22:35:40 22:38:50 20° 266° (W) 22:41:58 437.445
Oscar 11 23 Nov 22:37:46 22:39:15 12° 270° (W) 22:40:45 145.826/435.025
BEESAT 2 23 Nov 22:37:56 22:40:12 14° 318° (NW) 22:42:29 435.950
RS-15 23 Nov 22:38:52 22:46:59 22° 19° (NNE) 22:55:16 29.354- 29.394
UWE-3 23 Nov 22:41:14 22:44:22 20° 266° (W) 22:47:28 435.000/436.395/437.385
QB50P1 23 Nov 22:42:32 22:46:19 31° 97° (E) 22:50:05 145.935-145.965
CINEMA 3 23 Nov 22:47:30 22:48:07 10° 270° (W) 22:48:43 145.822/145.860
ANTELSAT 23 Nov 22:52:34 22:56:58 63° 101° (E) 23:01:27 437.575/2403.000
AIST 2 23 Nov 23:00:37 23:03:22 16° 317° (NW) 23:06:07 435.215
ESTCUBE 1 23 Nov 23:02:22 23:06:51 59° 259° (W) 23:11:22 437.505/2401.250
CUSAT 1 23 Nov 23:03:08 23:05:41 14° 74° (ENE) 23:08:35 437.405
BUGSAT 1 23 Nov 23:06:20 23:10:19 48° 100° (E) 23:14:13 437.445
POPSAT HIP 1 23 Nov 23:06:42 23:10:54 61° 101° (E) 23:15:03 437.405
VELOX 1 23 Nov 23:14:42 23:17:35 17° 267° (W) 23:20:29 145.980
DANDE 23 Nov 23:17:39 23:20:25 16° 75° (ENE) 23:23:39 436.750
HUMSAT D 23 Nov 23:25:29 23:27:08 12° 269° (W) 23:28:48 437.325/437.525
50 SAT 23 Nov 23:30:58 23:32:33 12° 269° (W) 23:34:08 437.505
ISS 23 Nov 23:35:25 23:38:01 22° 133° (SE) 23:40:37 145.825
ITUPSAT 1 23 Nov 23:36:14 23:38:31 13° 61° (ENE) 23:40:49 437.325
POLYITAN 1 23 Nov 23:38:46 23:42:55 55° 286° (WNW) 23:47:02 437.675
QB50P2 23 Nov 23:41:51 23:45:58 51° 287° (WNW) 23:50:03 145.880/145.840
SWISSCUBE 23 Nov 23:46:59 23:50:18 19° 64° (ENE) 23:53:37 437.505
TIGRISAT 23 Nov 23:48:56 23:52:51 32° 290° (WNW) 23:56:50 435.000
DUCHIFAT 1 23 Nov 23:49:39 23:53:38 42° 288° (WNW) 23:57:36 145.980
TISAT 1 23 Nov 23:55:41 23:59:55 60° 259° (W) 00:04:09 437.305
SPROUT 23 Nov 23:57:41 00:01:59 67° 259° (WSW) 00:06:18 437.525
UNISAT 6 24 Nov 00:01:30 00:05:03 24° 292° (WNW) 00:08:40 437.425
CUBEBUG 1 24 Nov 00:02:03 00:04:31 15° 268° (W) 00:06:59 437.445
